Regional Weather Roundup
Issued by NWS

Home | Current Version | Previous Version | Text Only | Print | Product List | Glossary On
Versions: 1 2 3 4 5 6 7 8 9 10 11 12 13 14 15 16 17 18 19 20 21 22 23 24 25 26 27 28 29 30 31 32 33 34 35 36 37 38 39 40 41 42 43 44 45 46 47 48 49 50
000
ASUS46 KSEW 040010
RWRWA

WASHINGTON REGIONAL WEATHER ROUNDUP
NATIONAL WEATHER SERVICE SEATTLE WA
500 PM PDT FRI JUL 03 2015

NOTE:"FAIR" INDICATES FEW OR NO CLOUDS BELOW 12,000 FEET WITH NO
SIGNIFICANT WEATHER AND/OR OBSTRUCTIONS TO VISIBILITY.

WAZ505-507>509-040100-
SEATTLE, TACOMA, EVERETT, AND VICINITY

CITY           SKY/WX    TMP DP  RH WIND       PRES   REMARKS
EVERETT        SUNNY     84  54  35 N7        29.90F
6HR MIN TEMP:  76; 6HR MAX TEMP:  86;

BOEING FIELD   SUNNY     92  52  25 VRB6      29.85F
6HR MIN TEMP:  80; 6HR MAX TEMP:  93;

RENTON         SUNNY     90  56  31 N7        29.84F
6HR MIN TEMP:  80; 6HR MAX TEMP:  91;

SEATAC AIRPORT SUNNY     91  54  28 W8        29.88F
6HR MIN TEMP:  78; 6HR MAX TEMP:  92;

JBLM-MCCHORD   SUNNY     92  54  27 VRB6      29.86F
6HR MIN TEMP:  82; 6HR MAX TEMP:  92; 6HR PCP: TRACE;

PUYALLUP       FAIR      93  54  26 VRB5      29.87F HX  91
BREMERTON      SUNNY     91  57  31 NE10      29.89S HX  90
6HR MIN TEMP:  82; 6HR MAX TEMP:  93;

JBLM-FT LEWIS  SUNNY     92  55  27 NW8       29.85F HX  90
6HR MIN TEMP:  80; 6HR MAX TEMP:  92;

TACOMA NARROWS SUNNY     88  54  31 VRB5      29.86F
6HR MIN TEMP:  78; 6HR MAX TEMP:  88;

$$

WAZ001-503-506-510-514-515-040100-
NORTH INTERIOR

CITY           SKY/WX    TMP DP  RH WIND       PRES   REMARKS
BELLINGHAM     SUNNY     81  56  42 VRB7      29.88F
6HR MIN TEMP:  72; 6HR MAX TEMP:  81;

FRIDAY HARBOR  SUNNY     84  50  30 N9        29.89F
6HR MIN TEMP:  72; 6HR MAX TEMP:  85;

EASTSOUND      SUNNY     75  52  43 N5        29.88F
PORT ANGELES   SUNNY     74  55  51 N5        29.91F
6HR MIN TEMP:  73; 6HR MAX TEMP:  83;

PORT TOWNSEND  FAIR      86  54  32 VRB6      29.87F
NAS WHIDBEY    SUNNY     76  56  49 NW7       29.92F
6HR MIN TEMP:  70; 6HR MAX TEMP:  78;

ARLINGTON      SUNNY     88  54  31 NW13      29.86F
6HR MIN TEMP:  81; 6HR MAX TEMP:  90;

BURLINGTON     SUNNY     81  54  39 NW13      29.88F
$$

WAZ020-022-039-040-504-511-512-040100-
SOUTHWEST INTERIOR

CITY           SKY/WX    TMP DP  RH WIND       PRES   REMARKS
SHELTON        SUNNY     89  55  31 W14       29.85F
6HR MIN TEMP:  76; 6HR MAX TEMP:  91;

OLYMPIA        SUNNY     93  54  26 NE10      29.85F HX  91
6HR MIN TEMP:  79; 6HR MAX TEMP:  94;

CHEHALIS       FAIR      93  61  33 NW7       29.86F HX  93
KELSO          SUNNY     84  61  45 NW10      29.91F
6HR MIN TEMP:  72; 6HR MAX TEMP:  86;

VANCOUVER      SUNNY     94  54  25 NW6       29.83F HX  92
6HR MIN TEMP:  78; 6HR MAX TEMP:  94;

SCAPPOOSE, OR  SUNNY     94  52  24 N14       29.83F HX  91
6HR MIN TEMP:  78; 6HR MAX TEMP:  96;

PORTLAND, OR   MOSUNNY   95  56  26 NW9       29.83F HX  93
6HR MIN TEMP:  79; 6HR MAX TEMP:  95;

$$

WAZ021-516-517-040100-
WASHINGTON COAST

CITY           SKY/WX    TMP DP  RH WIND       PRES   REMARKS
FORKS          CLOUDY    71  57  61 SW7       29.92F
6HR MIN TEMP:  66; 6HR MAX TEMP:  74;

HOQUIAM        SUNNY     66  53  63 SW16      29.94F HAZE
6HR MIN TEMP:  61; 6HR MAX TEMP:  68;

ASTORIA, OR    SUNNY     70  55  59 NW9       29.96F
6HR MIN TEMP:  64; 6HR MAX TEMP:  70;

$$

WAZ019-023-024-040-518-519-040100-
CASCADE MOUNTAINS AND COLUMBIA GORGE

CITY           SKY/WX    TMP DP  RH WIND       PRES   REMARKS
TROUTDALE, OR  SUNNY     96  52  22 VRB5      29.81F HX  93
6HR MIN TEMP:  78; 6HR MAX TEMP:  97;

THE DALLES, OR SUNNY     98  54  22 NW14G28   29.72F HX  96
6HR MIN TEMP:  88; 6HR MAX TEMP: 101;

$$

WAZ026-027-041>044-520-521-040100-
EAST SLOPES

CITY           SKY/WX    TMP DP  RH WIND       PRES   REMARKS
OMAK           MOSUNNY  104  36   9 VRB6      29.71F HX  98
6HR MIN TEMP:  95; 6HR MAX TEMP: 104;

WENATCHEE      SUNNY    104  31   8 W9        29.72F HX  97
6HR MIN TEMP:  93; 6HR MAX TEMP: 105;

ELLENSBURG     SUNNY     98  40  13 NW24G35   29.79F HX  93
6HR MIN TEMP:  93; 6HR MAX TEMP: 103;

YAKIMA         SUNNY    107  43  11 VRB6      29.73F HX 102
6HR MIN TEMP:  96; 6HR MAX TEMP: 107;

$$

WAZ028-034-035-040100-
COLUMBIA BASIN

CITY           SKY/WX    TMP DP  RH WIND       PRES   REMARKS
EPHRATA        SUNNY    104  37  10 S14       29.72F HX  98
6HR MIN TEMP:  94; 6HR MAX TEMP: 105;

MOSES LAKE     SUNNY    104  35   9 SW8       29.74F HX  98
6HR MIN TEMP:  93; 6HR MAX TEMP: 105;

PASCO          SUNNY    106  41  11 MISG      29.68F HX 100
6HR MIN TEMP:  93; 6HR MAX TEMP: 107;

HERMISTON, OR  SUNNY    104  39  10 W7        29.70F HX  98
6HR MIN TEMP:  92; 6HR MAX TEMP: 105;

$$

WAZ036>038-040100-
NORTHEAST WASHINGTON

CITY           SKY/WX    TMP DP  RH WIND       PRES   REMARKS
SPOKANE GEIGER MOSUNNY   98  40  13 W16       29.81F HX  93
6HR MIN TEMP:  89; 6HR MAX TEMP:  99;

SPOKANE FELTS  SUNNY     99  44  15 VRB3      29.78F HX  95
6HR MIN TEMP:  89; 6HR MAX TEMP: 101;

FAIRCHILD AFB  SUNNY     98  40  13 W6        29.82F HX  93
6HR MIN TEMP:  89; 6HR MAX TEMP:  98; 6HR PCP: TRACE;

COEURDALENE,ID SUNNY     99  43  14 W5        29.79F HX  94
6HR MIN TEMP:  86; 6HR MAX TEMP:  99;

DEER PARK      SUNNY    100  42  13 NW8       29.79F HX  95
6HR MIN TEMP:  87; 6HR MAX TEMP: 100;

$$

WAZ029>033-040100-
SOUTHEAST WASHINGTON

CITY           SKY/WX    TMP DP  RH WIND       PRES   REMARKS
PULLMAN        SUNNY     95  40  14 VRB6      29.86F HX  91
6HR MIN TEMP:  87; 6HR MAX TEMP:  97;

LEWISTON, ID   SUNNY    103  42  12 NE9       29.74F HX  98
6HR MIN TEMP:  91; 6HR MAX TEMP: 105;

WALLA WALLA    SUNNY    103  35   9 S7        29.74F HX  97
6HR MIN TEMP:  93; 6HR MAX TEMP: 105;

PENDLETON, OR  SUNNY    102  36  10 N13       29.77F HX  96
6HR MIN TEMP:  92; 6HR MAX TEMP: 104;

$$



USA.gov is the U.S. government's official web portal to all federal, state and local government web resources and services.